Home > Time Zones > World Clock > Weather > Russia > Perm > Past weeks

Flag for Russia Weather past 2 weeks in Perm, Russia

Now
50 °F

Sunny.


Feels Like: 50 °F
Forecast: 34 / 62 °F
Wind: 1 mph from North

Location: Perm'/Bolshoe Savino

Current Time: Sep 1, 2014 at 9:35:52 PM

Latest Report: Sep 1, 2014 at 9:00 PM


Visibility: 10 mi

Pressure: 30.18 "Hg

Humidity: 67%

Dew point: 39 °F

Location of PermLocation

Historic Weather in Perm — Graph

°F

Perm temperature yesterday

Maximum temperature yesterday: 57 °F (at 1:30 PM)
Minimum temperature yesterday: 50 °F (at 2:30 AM)
Average temperature yesterday: 53 °F

Past Weeks' High & Low Weather Summary

 TemperatureHumidityPressure
High79 °F (Aug 22, 4:00 PM)100% (Aug 18, 12:00 AM)30.18 "Hg (Aug 18, 12:00 AM)
Low37 °F (Aug 26, 7:30 AM)39% (Aug 22, 5:00 PM)29.30 "Hg (Aug 30, 1:00 AM)
Average60 °F82%29.88 "Hg
* Reported Aug 17 8:00 PM — Sep 1 8:30 PM, Perm, Weather by CustomWeather, © 2014

Note: Actual official high and low records may vary slightly from our data, if they occured in-between our weather recording intervals... More about our weather records

Advertising

Perm weather history for previous 24 hours

 ConditionsComfort  
Time TempWeatherWind HumidityBarometerVisibility
8:30 PM
Sep 1
52 °FPartly sunny.3 mph62%30.18 "HgN/A
8:00 PM54 °FBroken clouds.6 mph58%30.18 "HgN/A
7:30 PM55 °FBroken clouds.6 mph51%30.18 "HgN/A
7:00 PM55 °FPartly sunny.6 mph55%30.18 "HgN/A
6:30 PM55 °FPartly sunny.8 mph51%30.18 "HgN/A
6:00 PM54 °FPartly sunny.6 mph58%30.18 "HgN/A
5:30 PM54 °FPartly sunny.6 mph54%30.18 "HgN/A
5:00 PM57 °FPartly sunny.6 mph48%30.18 "HgN/A
4:30 PM54 °FPartly sunny.6 mph54%30.18 "HgN/A
4:00 PM54 °FPartly sunny.6 mph54%30.18 "HgN/A
3:30 PM54 °FPartly sunny.3 mph58%30.18 "HgN/A
3:00 PM52 °FPartly sunny.6 mph58%30.18 "HgN/A
2:30 PM54 °FPartly sunny.3 mph58%30.18 "HgN/A
2:00 PM52 °FPartly sunny.6 mph62%30.18 "HgN/A
1:30 PM52 °FPartly sunny.8 mph58%30.15 "HgN/A
1:00 PM52 °FPartly sunny.6 mph62%30.15 "HgN/A
12:30 PM50 °FPartly sunny.8 mph67%30.15 "HgN/A
12:00 PM52 °FPartly sunny.8 mph67%30.15 "HgN/A
11:30 AM50 °FPartly sunny.8 mph76%30.15 "HgN/A
11:00 AM50 °FPartly sunny.8 mph71%30.15 "HgN/A
10:30 AM48 °FBroken clouds.10 mph76%30.12 "HgN/A
10:00 AM48 °FScattered clouds.6 mph82%30.12 "HgN/A
9:30 AM46 °FPartly sunny.8 mph87%30.12 "HgN/A
9:00 AM46 °FSunny.6 mph87%30.12 "Hg10 mi
8:30 AM46 °FPartly sunny.6 mph87%30.09 "HgN/A
8:00 AM46 °FPartly sunny.6 mph93%30.09 "HgN/A
7:30 AM46 °FPartly sunny.6 mph93%30.07 "HgN/A
7:00 AM46 °FMostly cloudy.6 mph93%30.07 "HgN/A
6:30 AM48 °FMostly cloudy.3 mph94%30.07 "HgN/A
6:00 AM48 °FMostly cloudy.3 mph94%30.04 "HgN/A
5:30 AM48 °FMostly cloudy.3 mph94%30.04 "HgN/A
5:00 AM48 °FPassing clouds.3 mph94%30.04 "HgN/A
4:30 AM48 °FClear.3 mph94%30.01 "Hg10 mi
4:00 AM48 °FClear.1 mph94%30.01 "Hg10 mi
3:30 AM48 °FClear.3 mph94%30.01 "Hg10 mi
3:00 AM48 °FClear.No wind94%29.98 "Hg10 mi
2:30 AM48 °FClear.1 mph94%29.98 "Hg10 mi
2:00 AM50 °FClear.1 mph88%29.98 "Hg10 mi
1:30 AM48 °FClear.1 mph94%29.95 "Hg10 mi
1:00 AM48 °FClear.3 mph94%29.95 "Hg10 mi
12:30 AM48 °FClear.3 mph94%29.95 "Hg10 mi
12:00 AM50 °FPartly cloudy.3 mph88%29.95 "HgN/A
11:30 PM
Aug 31
50 °FPartly cloudy.3 mph88%29.95 "HgN/A
11:00 PM50 °FPartly cloudy.3 mph88%29.95 "HgN/A
10:30 PM50 °FPartly cloudy.1 mph88%29.95 "HgN/A
10:00 PM50 °FClear.1 mph88%29.92 "Hg10 mi
9:30 PM52 °FPartly cloudy.3 mph82%29.92 "HgN/A
9:00 PM52 °FBroken clouds.3 mph82%29.89 "HgN/A
Weather by CustomWeather, © 2014

See weather overviewHow to use our weather pages